{"data":{"norad_id":58767,"intl_designator":"2024-011C","name":"STARLINK-31140","alt_names":[],"object_type":"PAYLOAD","status":"ACTIVE","operator":null,"country":"US","launch_date":"2024-01-14","launch_site_code":"AFWTR","launch_vehicle":null,"mission":null,"orbit_class":"UNKNOWN","rcs_meters":null,"size_class":null,"mass_kg":null,"dimensions":null,"purposes":["comms"],"wikipedia_slug":null,"has_3d_model":false,"image_url":null,"decayed_at":null,"tle_current":{"epoch":"2026-05-25T01:28:27.863040Z","epoch_age_seconds":65917,"freshness":"FRESH","line1":"1 58767U 24011C   26145.06143360  .00000998  00000+0  45808-4 0  9996","line2":"2 58767  53.1615  18.9015 0001271  81.7724 278.3421 15.30198991131963","mean_motion":15.30198991,"eccentricity":0.0001271,"inclination_deg":53.1615,"raan_deg":18.9015,"arg_perigee_deg":81.7724,"mean_anomaly_deg":278.3421,"bstar":4.5808e-5,"rev_number":13196,"period_min":94.105407758696,"perigee_km":474.34702068217,"apogee_km":476.08914354404,"semimajor_km":6853.3550821131,"source":"CELESTRAK","updated_at":"2026-05-25T13:38:18.743898Z"}}}